Airfield :
LOGIN :

Register | Disclaimer

   EN    FR    IT 

 










Legend :    VFR   Marginal VFR   IFR   Intensive IFR   Very Intensive IFR
Visi :
Ceiling :
>= 8 km
>= 3000ft
5 to 8 km
1000 to 3000 ft
1500m to 5 km
500 to 1000 ft
800 to 1500m
200 to 500 ft
< 800m
< 200 ft
Symbols :   Thunderstorms  Fog  Heavy snow  Heavy precipitations  Wind > 20 kt
SIGMETs :     Misc.  Thunderstorms  Icing  Turbulence  Mountain Waves  Volcanic Ashes







- Airport Elevation : 1585 ft
- IATA code : SIR


LSGS - Sion

CURRENT METAR :
  • 191050Z VRB03KT CAVOK 08/M04 Q1023

EXPIRED METARs :
  • 191020Z 10003KT 050V140 CAVOK 07/M04 Q1023
  • 190950Z 09005KT CAVOK 06/M03 Q1024
  • 190920Z 09004KT CAVOK 04/M03 Q1024
  • 190850Z 10004KT CAVOK 03/M02 Q1024
  • 190820Z 09004KT 050V120 CAVOK 01/M03 Q1024

TAF TAF LSGS
Valid from the 19 at 09:00 until the 19 at 18:00 UTC


190825Z 1909/1918 VRB02KT CAVOK
No reported NOTAMs for that airfield.



MET'MAP, your aeronautical weather chart ! - Copyright ORBIFLY December 2007 - Disclaimer

ORBIFLY MET'MAP TEAM :

Programming & Development : Alexandra Zaïnal
Concept & Development : Baudouin d'Aumeries
Co-Development & Prog : Marc-Olivier Méhu
Technical & hardware support : Manuel Goepfert

Contact : metmap@orbifly.com




SOURCES & CREDITS :

   NOAA